Location: Hilton Head Island
(32.2163°N, 80.7526°W)
Time: 21:53:33
(UTC-04:00)

Tiros 1 despin weight - Pass Details

Date: 24 February 2026
Orbit: 556 x 593 km, 48.2° (Epoch: 10 March)

Event Time Altitude Azimuth Distance (km) Brightness Sun altitude
Rises 17:10:13 0° 320° (NW) 2,735 ? 12.7°
Reaches altitude 10° 17:13:22 10° 345° (NNW) 1,836 ? 12.1°
Maximum altitude 17:15:45 15° 20° (NNE) 1,558 ? 11.6°
Drops below altitude 10° 17:18:07 10° 55° (NE) 1,833 ? 11.2°
Sets 17:21:16 0° 80° (E) 2,728 ? 10.5°
